Tracking 31027 objects as of 19-Jul-2025
HD Live streaming from Space Station
objects crossing your sky now

OSCAR 24

Track OSCAR 24 now!
10-day predictions
OSCAR 24 is classified as:


NORAD ID: 15936
Int'l Code: 1985-066B
Perigee: 1,004.5 km
Apogee: 1,259.0 km
Inclination: 90.2 °
Period: 107.8 minutes
Semi major axis: 7502 km
RCS: 1.6504 m2 (large)
Launch date: August 3, 1985
Source: United States (US)
Launch site: AIR FORCE WESTERN TEST RANGE (AFWTR)
Your satellite tracking list
FENGYUN 1C DEB
Track 1 satellite(s)




NASA's NSSDC Master Catalog

Two Line Element Set (TLE):
1 15936U 85066B   25199.26108903  .00000070  00000-0  10782-3 0  9992
2 15936  90.1807  89.7493 0169592 145.6566 328.0263 13.35905120946749
Source of the keplerian elements: AFSPC